Date String (YYYY-MM-DD hh:mm:ss) UTC,Instrument flags,Ambient pressure (hPa),Sample flow (lpm),Bypass flow (lpm),Sample temperature (°C),Ambient temperature (°C),ASC tube jacket temperature (°C),LED temperature (°C),Box temperature (°C),Sample RH (%),Span deviation,Mass concentration (μg/m³),Mass concentration (μg/m³),Mass concentration (μg/m³)
DateTimeUTC,F1_M11,P_M11,Q1_M11,Q2_M11,T1_M11,T2_M11,T3_M11,T4_M11,T5_M11,U1_M11,ZSPAN_M11,X0_M11,X2_M11,X1_M11
2022-05-19 16:00:00,,0814.7,4.99,0.00,29.7,28.3,00.0,38.5,31.5,08.9,0000.0,0008.10,0003.25,0001.65
2022-05-19 16:01:00,,0815.0,4.99,0.00,29.7,28.4,00.0,38.5,31.5,09.0,0000.0,0008.10,0003.23,0001.63
2022-05-19 16:02:00,,0814.9,4.99,0.00,29.7,28.5,00.0,38.6,31.5,09.0,0000.0,0008.10,0003.24,0001.64
2022-05-19 16:03:00,,0815.0,5.00,0.00,29.7,28.5,00.0,38.6,31.6,09.2,0000.0,0008.04,0003.26,0001.63
2022-05-19 16:04:00,,0814.9,5.00,0.00,29.7,28.6,00.0,38.6,31.6,09.5,0000.0,0008.15,0003.35,0001.62
2022-05-19 16:05:00,,0814.9,5.01,0.00,29.7,28.6,00.0,38.6,31.6,09.5,0000.0,0008.57,0003.41,0001.65
2022-05-19 16:06:00,,0814.8,5.00,0.00,29.7,28.7,00.0,38.6,31.6,09.5,0000.0,0008.95,0003.39,0001.65
2022-05-19 16:07:00,,0814.7,4.99,0.00,29.8,28.7,00.0,38.6,31.6,09.5,0000.0,0009.79,0003.41,0001.65
2022-05-19 16:08:00,,0815.0,4.99,0.00,29.8,28.8,00.0,38.6,31.7,09.5,0000.0,0010.50,0003.41,0001.65
2022-05-19 16:09:00,,0814.8,5.00,0.00,29.8,28.8,00.0,38.6,31.7,09.0,0000.0,0010.79,0003.40,0001.66
2022-05-19 16:10:00,,0815.1,5.01,0.00,29.8,28.9,00.0,38.6,31.7,08.9,0000.0,0010.71,0003.37,0001.66
2022-05-19 16:11:00,,0814.9,5.01,0.00,29.9,28.9,00.0,38.7,31.8,09.1,0000.0,0010.41,0003.36,0001.66
2022-05-19 16:12:00,,0815.0,5.00,0.00,29.9,28.5,00.0,38.6,31.6,09.1,0000.0,0010.35,0003.37,0001.68
2022-05-19 16:13:00,,0814.8,5.00,0.00,29.8,27.9,00.0,38.6,31.4,09.5,0000.0,0010.73,0003.39,0001.68
2022-05-19 16:14:00,,0814.3,4.98,0.00,29.7,27.7,00.0,38.6,31.4,09.5,0000.0,0010.79,0003.41,0001.70
2022-05-19 16:15:00,,0814.4,5.00,0.00,29.7,27.7,00.0,38.5,31.4,09.5,0000.0,0010.71,0003.37,0001.70
2022-05-19 16:16:00,,0814.5,5.01,0.00,29.7,27.8,00.0,38.5,31.4,09.5,0000.0,0010.71,0003.36,0001.70
2022-05-19 16:17:00,,0814.5,5.02,0.00,29.6,27.9,00.0,38.5,31.4,09.5,0000.0,0010.41,0003.39,0001.70
2022-05-19 16:18:00,,0814.6,5.00,0.00,29.6,28.0,00.0,38.5,31.4,09.3,0000.0,0009.78,0003.40,0001.72
2022-05-19 16:19:00,,0814.7,5.00,0.00,29.6,28.1,00.0,38.5,31.4,09.3,0000.0,0008.92,0003.40,0001.72
2022-05-19 16:20:00,,0814.9,5.00,0.00,29.6,28.2,00.0,38.5,31.4,09.5,0000.0,0008.45,0003.39,0001.73
2022-05-19 16:21:00,,0814.8,5.00,0.00,29.6,28.3,00.0,38.5,31.5,09.6,0000.0,0008.44,0003.35,0001.71
2022-05-19 16:22:00,,0814.7,5.01,0.00,29.7,28.4,00.0,38.5,31.5,09.4,0000.0,0008.67,0003.40,0001.73
2022-05-19 16:23:00,,0814.9,5.00,0.00,29.7,28.5,00.0,38.5,31.5,09.3,0000.0,0008.80,0003.42,0001.72
2022-05-19 16:24:00,,0814.7,5.00,0.00,29.7,28.5,00.0,38.5,31.5,09.4,0000.0,0008.89,0003.44,0001.71
2022-05-19 16:25:00,,0814.8,5.00,0.00,29.7,28.6,00.0,38.6,31.6,09.4,0000.0,0008.90,0003.43,0001.71
2022-05-19 16:26:00,,0814.9,4.99,0.00,29.7,28.6,00.0,38.6,31.6,09.6,0000.0,0008.70,0003.41,0001.71
2022-05-19 16:27:00,,0814.4,5.01,0.00,29.7,28.7,00.0,38.6,31.6,09.4,0000.0,0008.34,0003.38,0001.70
2022-05-19 16:28:00,,0814.4,5.00,0.00,29.7,28.7,00.0,38.6,31.6,09.4,0000.0,0008.36,0003.39,0001.69
2022-05-19 16:29:00,,0814.4,5.00,0.00,29.8,28.8,00.0,38.6,31.7,08.9,0000.0,0008.26,0003.40,0001.69
2022-05-19 16:30:00,,0814.7,4.99,0.00,29.8,28.8,00.0,38.6,31.7,09.0,0000.0,0008.61,0003.40,0001.70
2022-05-19 16:31:00,,0814.9,5.00,0.00,29.8,28.9,00.0,38.6,31.7,08.9,0000.0,0009.17,0003.43,0001.69
2022-05-19 16:32:00,,0814.8,5.00,0.00,29.8,28.9,00.0,38.6,31.8,09.2,0000.0,0009.32,0003.45,0001.69
2022-05-19 16:33:00,,0815.0,5.00,0.00,29.9,28.8,00.0,38.6,31.7,09.6,0000.0,0009.52,0003.46,0001.69
2022-05-19 16:34:00,,0814.9,5.00,0.00,29.8,27.9,00.0,38.6,31.4,10.0,0000.0,0009.62,0003.45,0001.69
2022-05-19 16:35:00,,0814.9,4.99,0.00,29.7,27.2,00.0,38.5,31.2,10.1,0000.0,0009.40,0003.43,0001.70
2022-05-19 16:36:00,,0815.0,5.00,0.00,29.6,27.1,00.0,38.5,31.2,09.6,0000.0,0009.35,0003.39,0001.68
2022-05-19 16:37:00,,0814.5,5.00,0.00,29.5,27.2,00.0,38.5,31.2,09.3,0000.0,0009.61,0003.38,0001.69
2022-05-19 16:38:00,,0814.8,4.99,0.00,29.5,27.3,00.0,38.5,31.2,09.1,0000.0,0009.71,0003.32,0001.69
2022-05-19 16:39:00,,0814.5,4.99,0.00,29.5,27.5,00.0,38.4,31.2,09.1,0000.0,0009.89,0003.29,0001.69
2022-05-19 16:40:00,,0814.3,5.01,0.00,29.5,27.7,00.0,38.4,31.2,09.3,0000.0,0010.44,0003.25,0001.69
2022-05-19 16:41:00,,0814.4,5.00,0.00,29.5,27.8,00.0,38.4,31.3,09.3,0000.0,0010.95,0003.28,0001.69
2022-05-19 16:42:00,,0814.3,4.99,0.00,29.5,28.0,00.0,38.4,31.3,09.5,0000.0,0010.38,0003.27,0001.69
2022-05-19 16:43:00,,0814.5,5.00,0.00,29.5,28.1,00.0,38.4,31.4,09.3,0000.0,0010.19,0003.27,0001.68
2022-05-19 16:44:00,,0814.4,5.00,0.00,29.5,28.2,00.0,38.4,31.4,09.3,0000.0,0009.87,0003.27,0001.68
2022-05-19 16:45:00,,0814.5,5.00,0.00,29.5,28.3,00.0,38.4,31.4,09.2,0000.0,0009.97,0003.33,0001.69
2022-05-19 16:46:00,,0814.4,5.01,0.00,29.6,28.4,00.0,38.4,31.4,09.5,0000.0,0010.24,0003.35,0001.69
2022-05-19 16:47:00,,0814.4,5.01,0.00,29.6,28.5,00.0,38.4,31.5,10.0,0000.0,0010.60,0003.41,0001.69
2022-05-19 16:48:00,,0814.4,4.99,0.00,29.6,28.6,00.0,38.5,31.5,10.1,0000.0,0010.57,0003.44,0001.70
2022-05-19 16:49:00,,0814.4,5.01,0.00,29.7,28.7,00.0,38.5,31.5,09.9,0000.0,0010.69,0003.51,0001.70
2022-05-19 16:50:00,,0814.4,5.00,0.00,29.7,28.7,00.0,38.5,31.6,09.6,0000.0,0011.12,0003.54,0001.69
2022-05-19 16:51:00,,0814.4,5.00,0.00,29.7,28.8,00.0,38.5,31.6,10.0,0000.0,0010.50,0003.53,0001.67
2022-05-19 16:52:00,,0814.3,5.00,0.00,29.7,28.8,00.0,38.5,31.7,09.7,0000.0,0009.66,0003.48,0001.65
2022-05-19 16:53:00,,0814.4,5.00,0.00,29.8,28.9,00.0,38.5,31.7,10.0,0000.0,0009.54,0003.47,0001.65
2022-05-19 16:54:00,,0814.3,4.99,0.00,29.8,28.9,00.0,38.6,31.7,10.1,0000.0,0009.50,0003.46,0001.65
2022-05-19 16:55:00,,0814.1,5.00,0.00,29.8,28.3,00.0,38.5,31.5,09.6,0000.0,0009.60,0003.42,0001.63
2022-05-19 16:56:00,,0814.0,5.00,0.00,29.7,27.4,00.0,38.5,31.3,09.5,0000.0,0009.67,0003.36,0001.62
2022-05-19 16:57:00,,0813.7,5.01,0.00,29.6,27.2,00.0,38.4,31.2,09.3,0000.0,0009.44,0003.31,0001.60
2022-05-19 16:58:00,,0814.0,5.00,0.00,29.5,27.3,00.0,38.4,31.2,09.3,0000.0,0010.52,0003.28,0001.61
2022-05-19 16:59:00,,0814.0,4.99,0.00,29.5,27.4,00.0,38.4,31.2,09.6,0000.0,0010.42,0003.26,0001.59
